Location: Arbon
(43.0005°N, 0.7472°E)
Time: 22:18:23
(UTC+00:00)

Explorer 7 - Pass Details

Date: 27 November 2020
Orbit: 484 x 678 km, 50.3° (Epoch: 25 January)

Event Time Altitude Azimuth Distance (km) Brightness Sun altitude
Rises 02:43:25 0° 239° (WSW) 2,916 - -47.0°
Reaches altitude 10° 02:45:48 10° 239° (WSW) 1,981 - -46.6°
Maximum altitude 02:50:21 88° 327° (NNW) 598 - -45.8°
Drops below altitude 10° 02:54:38 10° 60° (ENE) 1,864 - -45.0°
Exits shadow 02:56:37 - 60° (ENE) 2,650 11.0 -44.7°
Sets 02:56:49 0° 60° (ENE) 2,729 11.1 -44.6°
